Location: Unspecified
(0.0000°N, 0.0000°E)
Time: 12:12:32
(UTC+00:00)

LightSail 2 - Pass Details

Date: 22 November 2019
Orbit: 696 x 729 km, 24.0° (Epoch: 10 December)

Event Time Altitude Azimuth Distance (km) Brightness Sun altitude
Exits shadow 05:08:54 - 319° (NW) 2,438 7.4 -8.7°
Reaches altitude 10° 05:09:39 10° 323° (NW) 2,192 7.2 -8.5°
Maximum altitude 05:14:12 31° 24° (NNE) 1,256 6.5 -7.5°
Drops below altitude 10° 05:18:48 10° 86° (E) 2,210 8.9 -6.4°
Sets 05:21:30 0° 96° (E) 3,134 10.4 -5.8°
